Theta_e
281 282 282 282 283 283 284 285 285 285 285 285 285 285 285 286 286 287 287 287 287 287 288 289 289 290 291 292 293 294 295 296 297 297 298 298 299 300 301 302 303 304 305 305 306 306 307 308 309 309 310 310 309 309 308 308 309 310 310 311 312 314 316 319 322 326 329 331 332 334 334 334 333 333 333 334 336 337 337 337 336 335 333 333 336 339
281 281 282 282 282 283 283 284 285 285 285 285 284 285 285 285 286 286 287 287 287 287 288 288 289 290 291 291 293 294 295 296 296 296 297 297 298 299 300 301 302 303 304 305 305 306 307 308 309 309 310 310 309 309 308 308 308 309 310 310 311 313 315 317 321 325 329 331 332 333 334 334 334 333 333 334 335 336 337 336 335 334 333 333 336 339
281 281 281 281 282 283 283 284 285 285 285 284 284 285 285 285 286 286 286 287 287 287 288 288 289 290 290 291 292 293 294 295 295 296 296 297 298 299 300 301 302 303 304 304 305 306 306 307 308 309 310 310 310 309 308 308 308 308 309 310 311 312 314 316 319 324 329 332 333 333 333 334 334 333 334 334 335 336 337 336 335 334 333 334 336 338
281 281 281 281 282 282 283 284 285 285 285 284 284 284 285 285 286 286 286 286 287 287 288 288 289 289 290 291 292 293 293 294 295 295 296 296 297 298 299 300 301 302 303 304 305 305 306 307 308 309 310 310 310 309 308 308 308 308 309 310 311 313 314 316 319 323 329 332 333 332 333 333 333 333 334 335 335 336 337 336 336 334 334 334 336 338
280 280 281 281 282 282 283 284 285 285 284 284 284 284 285 285 285 286 286 286 287 287 287 288 288 289 290 291 291 292 292 293 294 294 295 296 297 298 299 300 301 302 303 304 305 305 306 307 308 309 310 310 310 309 309 308 308 308 309 311 311 313 314 316 319 323 329 331 332 331 332 333 333 333 334 334 335 336 336 336 336 335 334 335 336 338
280 280 280 281 282 283 283 284 284 284 284 284 284 284 285 285 285 286 286 286 286 287 287 287 288 289 290 290 291 291 291 292 292 293 294 296 297 298 299 300 301 302 303 304 305 305 306 307 308 309 310 310 310 310 309 308 308 308 310 311 312 313 315 316 319 323 328 330 330 330 331 332 333 334 334 335 335 336 336 336 336 336 335 336 337 338
280 280 280 281 282 282 283 284 284 284 283 284 284 284 284 285 285 285 286 286 286 286 286 287 288 289 289 289 290 290 290 291 292 293 294 295 296 297 298 300 301 302 303 304 305 305 306 306 308 309 310 310 310 310 309 308 308 309 310 311 312 313 315 316 319 323 327 329 329 329 330 332 334 334 334 335 335 336 336 336 336 336 336 336 337 339
280 280 280 281 281 282 283 283 283 283 283 284 284 284 284 284 285 285 285 285 285 285 286 287 288 288 289 289 289 289 289 290 291 293 294 295 295 296 297 298 299 301 302 303 304 304 305 306 307 309 310 310 310 310 309 308 309 310 311 312 312 313 315 317 319 323 326 328 328 328 330 332 334 334 334 335 335 335 336 336 336 336 336 337 337 338
280 280 280 281 282 282 283 283 283 283 283 283 284 284 284 284 284 285 284 284 285 285 286 287 287 288 288 288 288 288 289 290 291 292 293 294 294 295 296 297 298 299 301 302 303 304 305 306 307 309 310 310 310 310 309 308 309 310 312 312 313 314 316 318 320 323 326 328 328 329 330 332 333 334 334 334 334 335 335 335 335 336 336 337 337 338
280 280 280 281 281 282 283 283 283 283 283 283 283 283 284 284 284 284 284 284 284 285 285 286 287 287 287 287 287 288 288 290 291 292 292 293 293 294 295 296 297 299 300 301 302 303 305 306 308 309 310 310 310 310 309 309 309 310 312 312 312 314 316 319 322 324 326 328 329 329 331 332 333 333 333 333 333 334 334 335 335 335 335 336 337 337
279 280 280 281 281 282 282 282 282 282 283 283 283 283 283 283 284 284 284 284 284 284 285 286 286 287 287 287 287 287 289 290 291 291 291 292 293 294 295 296 297 298 300 301 302 303 305 306 308 309 310 310 310 310 309 309 309 310 311 312 312 314 317 320 323 325 327 329 329 330 331 332 333 333 332 332 333 333 334 334 334 335 335 336 336 336
279 280 280 280 281 281 282 282 282 282 282 282 282 282 282 283 283 283 284 284 284 284 285 285 286 286 286 286 287 287 289 290 290 290 290 291 293 294 295 296 297 298 300 301 302 303 304 306 309 310 310 310 309 309 309 309 309 310 311 311 313 315 318 321 324 326 328 329 330 330 331 332 333 332 332 332 332 333 333 334 334 334 335 335 335 336
279 279 280 280 281 281 281 281 282 282 282 282 282 282 282 282 283 283 283 283 283 284 284 285 285 285 286 286 286 288 290 290 290 289 289 290 291 292 293 295 296 298 299 300 301 302 304 306 309 310 310 309 309 310 310 309 309 309 310 312 313 316 319 322 324 326 328 329 330 331 331 332 333 332 331 331 332 333 333 333 334 334 334 334 334 335
279 279 280 280 280 281 281 281 281 281 282 282 282 282 282 282 282 283 283 283 283 283 284 285 285 285 285 285 287 288 289 289 288 288 288 289 290 291 292 293 295 297 298 300 301 302 303 306 308 310 310 310 310 310 310 309 309 309 310 312 314 317 319 321 324 326 328 329 330 331 331 332 332 332 332 331 332 332 333 333 333 334 334 334 334 334
279 279 279 280 280 280 281 281 281 281 281 281 281 281 281 282 282 282 282 282 283 283 284 284 284 284 285 285 286 288 288 287 287 287 287 288 290 291 291 292 294 296 298 299 300 302 303 306 309 311 310 310 310 311 310 309 309 309 311 313 315 317 318 320 323 326 328 329 330 331 331 332 332 332 331 331 332 332 333 333 333 333 334 334 334 334
279 279 279 280 280 280 280 280 280 281 281 281 281 281 281 281 282 282 282 282 283 283 284 284 284 284 284 285 286 286 286 286 286 286 287 287 289 291 291 291 293 295 297 299 300 302 303 306 309 311 310 310 310 311 310 310 309 310 312 314 316 317 318 320 323 326 328 328 330 330 331 332 332 332 331 331 331 332 333 333 333 333 333 334 334 334
279 279 279 279 280 280 280 280 280 280 280 280 280 281 281 281 281 281 282 282 282 283 283 284 284 284 284 284 285 285 285 285 286 286 286 287 288 290 291 291 292 294 296 298 300 301 302 306 310 312 311 310 311 311 310 309 310 311 313 315 316 317 318 320 323 326 327 328 329 330 331 331 332 332 331 331 331 331 332 333 333 333 333 333 333 334
279 279 279 279 279 279 279 279 280 280 280 280 280 280 280 281 281 281 282 282 282 283 283 283 284 284 284 284 284 285 285 285 285 285 286 286 288 289 290 291 292 293 295 298 299 300 301 305 310 313 312 311 311 311 310 310 310 312 314 316 317 317 318 320 323 325 327 328 329 330 330 331 331 332 332 331 331 331 331 332 332 333 333 333 333 333
279 278 278 279 279 279 279 279 279 280 280 280 280 280 280 280 281 281 282 282 282 282 283 283 283 283 283 283 284 284 284 284 284 285 286 286 287 289 290 291 292 294 295 297 298 300 301 305 309 313 313 312 311 311 310 310 312 313 315 316 317 318 318 320 323 325 327 328 329 330 330 331 331 332 332 332 331 331 331 331 331 332 332 332 333 333
278 278 278 278 278 279 279 279 279 279 279 279 280 280 280 280 281 281 282 282 282 282 282 282 283 283 283 283 283 283 283 284 284 285 285 286 287 288 290 291 293 294 295 297 298 299 301 304 308 312 314 312 312 311 310 311 313 314 315 316 317 318 319 321 323 325 327 329 329 330 330 330 331 331 332 332 332 331 331 331 331 331 331 332 332 333
278 278 278 278 278 279 279 279 279 279 279 279 279 280 280 281 281 281 282 281 281 281 282 282 283 283 283 283 283 283 283 283 284 285 286 287 288 289 290 291 292 294 295 296 297 299 301 303 306 311 314 313 312 312 311 313 313 314 315 317 318 318 319 321 323 325 328 329 329 330 330 330 330 331 331 331 332 332 331 331 331 331 331 331 332 332
278 278 278 278 278 279 279 279 279 279 279 279 279 280 280 281 281 282 281 281 281 281 282 282 282 282 282 282 282 283 283 283 284 285 286 287 289 290 290 291 291 292 294 295 296 298 299 301 304 309 314 314 313 312 312 313 314 314 317 318 318 318 320 322 323 325 328 329 329 330 330 330 330 330 331 331 331 331 332 332 332 331 331 331 332 332
279 279 279 279 279 279 279 279 279 279 279 279 280 280 281 281 281 281 281 281 281 282 282 282 282 282 282 282 282 282 283 284 285 287 288 289 289 290 289 290 290 292 293 294 295 296 297 299 303 308 314 315 314 313 313 314 314 316 318 318 318 319 321 322 323 324 327 329 329 330 330 330 330 330 330 330 331 331 331 331 331 331 331 331 331 332
279 279 279 279 279 279 279 279 280 280 280 280 281 281 281 281 281 281 281 281 282 282 282 282 282 282 282 282 282 282 283 286 288 288 288 288 288 288 288 289 290 291 293 293 294 294 296 299 304 310 315 315 315 314 314 315 316 318 319 318 318 319 321 323 323 324 327 328 329 330 330 330 330 330 330 330 330 330 331 331 331 331 331 331 331 331
280 280 280 280 280 280 280 281 281 281 282 282 282 282 281 281 281 282 282 282 282 281 281 281 281 281 281 281 282 283 284 285 286 285 285 286 287 287 288 289 290 291 291 292 293 294 296 300 305 311 315 316 316 316 316 317 318 319 319 318 319 320 322 323 324 325 327 328 329 329 330 330 330 330 329 330 330 330 330 330 331 331 331 330 330 331
280 279 279 280 280 280 281 281 281 281 281 281 281 281 281 282 282 281 281 281 281 281 281 281 281 281 281 281 282 282 283 284 284 285 285 285 286 287 287 289 289 290 290 290 292 294 296 300 306 311 315 316 316 316 317 318 318 319 320 319 320 321 323 324 324 325 327 328 328 329 330 330 330 329 329 329 330 330 330 330 330 330 330 330 330 330
279 279 279 279 279 280 280 280 280 280 280 280 281 281 282 282 281 280 280 280 280 280 280 280 280 280 281 281 281 282 282 283 284 285 285 285 285 286 287 288 288 288 289 289 291 294 297 301 306 312 315 315 315 316 317 317 318 319 320 320 321 322 323 324 325 326 327 327 328 328 329 329 329 329 329 329 329 329 330 330 330 330 330 330 330 330
278 278 278 278 278 279 279 279 279 279 279 280 281 281 281 280 280 279 279 279 279 279 280 280 280 281 281 281 281 281 281 282 284 284 284 284 285 286 287 287 287 287 288 289 291 295 299 304 308 312 315 315 315 315 316 317 317 318 319 320 321 322 323 324 325 326 327 327 327 328 328 329 329 329 329 329 329 329 329 330 330 330 330 330 330 330
277 277 277 278 278 278 278 278 277 278 278 279 280 280 280 279 279 279 279 279 279 279 279 280 280 280 281 281 281 281 281 284 284 284 283 284 285 286 286 286 286 287 287 288 290 294 301 307 310 312 315 315 315 315 315 316 316 317 318 319 320 321 322 323 324 326 326 327 327 327 328 328 329 329 329 329 329 329 329 329 329 330 329 329 329 329
277 277 277 277 277 277 277 277 277 277 278 278 279 279 279 278 278 279 279 279 279 279 280 280 280 280 280 280 280 281 283 284 284 283 282 283 284 285 285 285 286 286 286 287 289 293 299 305 308 311 314 315 315 315 315 315 316 317 317 318 318 319 320 322 323 325 326 326 326 327 327 328 328 328 328 329 329 329 329 330 330 329 329 329 328 328
277 277 277 277 277 277 277 277 277 277 277 277 278 278 278 278 278 278 279 279 279 279 279 279 280 280 280 280 280 281 282 282 282 282 282 283 284 284 285 285 285 285 286 287 289 292 296 300 304 308 313 315 315 315 315 316 316 317 317 317 318 318 319 320 322 324 325 326 326 326 326 327 327 327 328 328 328 329 329 329 329 329 328 328 328 328
277 277 277 277 277 277 277 277 277 277 277 277 277 277 277 278 278 278 278 279 279 279 279 279 279 280 280 280 280 280 281 281 281 281 281 282 283 284 284 284 285 285 285 286 288 290 292 296 299 303 308 313 314 314 315 315 316 317 317 317 317 318 318 319 321 323 324 325 325 326 326 327 327 327 327 327 327 327 328 328 329 329 328 328 328 327
277 277 277 277 277 277 277 277 277 277 277 277 277 277 277 277 278 278 278 278 278 279 279 279 279 279 280 280 280 280 280 280 280 281 281 282 283 283 284 284 284 284 285 286 287 288 290 293 295 297 302 307 311 313 314 315 316 316 317 317 317 318 318 318 320 321 323 324 324 325 325 326 326 326 326 326 326 327 327 327 328 328 328 328 327 327
277 277 277 277 277 277 277 277 277 277 277 277 277 277 277 277 278 278 278 278 278 279 279 279 279 279 280 280 280 280 280 280 281 281 281 282 282 283 283 283 284 284 285 285 286 287 289 291 292 293 296 302 309 313 313 315 315 315 317 317 317 318 318 318 319 320 321 323 324 324 324 325 326 326 326 326 326 326 326 327 327 327 328 327 327 327
277 277 277 277 277 277 277 277 277 277 277 277 277 277 277 277 278 278 278 278 279 279 279 279 279 279 279 280 280 280 280 280 281 281 282 282 282 282 283 283 283 284 284 285 286 287 288 289 290 291 294 299 306 312 313 315 314 314 316 316 317 318 318 319 319 319 320 322 323 324 324 324 325 325 325 326 326 326 326 326 327 327 327 327 327 327
277 277 277 277 277 277 277 277 277 277 277 277 277 277 277 278 278 278 278 279 279 279 279 279 279 279 280 280 280 280 280 281 281 282 282 282 282 282 282 283 283 284 284 285 285 286 287 288 289 290 293 299 305 309 312 314 314 313 314 315 316 317 318 319 319 320 321 322 323 323 324 324 324 324 325 325 326 326 326 326 326 326 327 327 327 327
277 277 277 277 277 277 277 277 277 277 277 277 277 277 278 278 278 279 279 279 279 279 279 280 280 280 280 280 280 280 281 281 282 282 282 282 282 282 282 283 283 284 284 285 285 286 286 287 288 290 294 300 303 304 306 313 314 313 314 314 316 317 318 318 319 319 320 321 321 322 323 323 323 324 324 325 325 326 326 326 326 326 326 326 327 327
277 277 277 277 277 277 277 277 277 277 277 277 277 278 278 278 279 279 279 279 279 279 280 280 280 280 280 281 281 281 281 282 282 283 283 283 283 283 282 283 283 284 284 284 285 285 286 287 288 290 294 297 298 298 300 309 314 314 313 314 315 316 317 318 318 319 319 320 320 321 321 322 323 323 323 323 324 324 325 325 325 325 326 326 326 326
277 277 277 277 277 277 277 277 277 277 277 277 277 278 278 278 279 279 279 279 279 280 280 280 280 281 281 281 282 282 282 283 283 284 284 284 284 284 284 284 284 284 285 285 285 285 286 287 288 290 292 293 294 295 298 305 312 315 313 314 314 315 316 317 318 319 319 319 319 319 319 320 321 321 321 322 322 323 324 324 325 325 325 325 326 326
277 277 277 277 277 277 277 277 277 277 277 277 278 278 278 279 279 279 279 279 280 280 280 280 281 281 281 282 283 283 283 284 284 285 285 285 285 285 285 285 285 285 286 286 286 286 286 287 287 288 289 291 292 294 296 299 307 314 314 314 315 315 315 317 318 319 319 320 319 318 318 319 320 321 321 321 322 323 323 324 324 325 325 325 325 326
277 277 277 277 277 277 277 277 277 277 277 277 278 278 278 278 279 279 279 279 280 280 280 280 281 281 282 283 283 284 284 284 285 285 285 285 286 286 286 286 286 286 287 287 287 287 287 287 287 288 289 290 292 294 296 298 303 310 313 314 315 315 315 316 317 318 319 319 319 319 318 319 320 321 321 322 322 323 324 324 324 325 325 325 325 325
277 277 277 277 277 277 277 277 277 277 277 278 278 278 278 278 279 279 279 279 280 280 280 280 281 281 282 283 283 284 284 284 285 285 285 285 286 286 286 287 287 288 288 288 288 288 288 288 288 288 290 291 293 295 297 299 304 310 314 314 314 314 315 315 316 317 317 318 318 318 318 318 318 318 319 320 321 322 323 324 324 324 324 324 324 324
277 277 277 277 277 277 277 277 277 277 277 278 278 278 278 278 278 279 279 279 280 280 280 280 281 281 282 283 283 284 284 285 285 285 286 286 286 287 287 288 288 289 289 288 288 288 288 289 290 291 292 293 294 295 296 299 304 309 314 314 314 314 313 313 314 315 315 316 316 317 317 316 316 316 317 318 319 320 322 323 323 323 324 323 323 323
276 276 277 277 277 277 277 277 277 277 277 278 278 278 278 278 278 279 279 279 279 280 280 280 280 281 282 282 283 283 284 285 285 286 286 286 287 287 288 289 289 290 290 289 289 289 289 290 290 291 292 293 294 295 298 300 304 310 314 314 314 313 313 312 312 313 313 314 315 316 316 316 316 315 316 316 317 319 320 321 322 322 322 322 322 322
276 276 276 277 277 277 277 277 277 277 278 278 278 278 278 278 278 279 279 279 279 279 280 280 280 281 282 282 282 283 283 284 285 286 286 287 288 288 289 289 290 290 290 290 289 289 289 290 291 292 294 295 297 298 299 300 305 311 314 313 313 313 312 312 312 313 312 312 313 315 316 316 316 315 314 314 315 317 318 320 320 321 321 321 321 321
276 276 276 276 277 277 277 277 277 277 278 278 278 278 278 278 278 279 279 279 279 279 280 280 280 281 281 281 282 282 283 283 284 285 286 287 288 289 289 290 290 290 290 290 290 290 290 290 290 292 294 296 297 297 297 299 303 309 312 313 312 312 311 311 312 312 312 312 312 313 315 316 316 314 311 311 312 314 316 318 319 320 320 320 320 320
276 276 276 276 276 276 277 277 277 278 278 278 278 278 278 278 278 278 279 279 279 279 280 280 280 280 281 281 281 282 282 283 283 283 284 285 287 288 289 290 290 290 290 290 290 290 290 291 291 291 292 294 295 296 297 298 301 304 309 311 311 310 309 309 309 310 311 311 312 313 314 315 314 311 309 308 309 311 313 315 317 318 319 319 319 319
276 276 276 276 276 276 276 277 277 277 278 278 278 278 278 278 278 278 278 279 279 279 280 280 280 280 281 281 281 282 282 282 283 283 283 284 285 287 289 290 291 291 291 291 291 291 291 291 291 291 291 292 293 294 295 296 298 301 305 308 309 308 307 307 307 309 310 311 312 313 314 314 312 309 308 307 307 307 309 311 313 316 318 319 319 319
276 276 276 276 276 276 276 277 277 277 278 278 278 278 278 278 278 278 278 278 279 279 279 279 280 280 280 281 281 281 282 282 282 282 283 283 284 285 287 289 290 291 292 292 292 292 292 292 292 292 291 292 292 292 293 295 297 299 302 305 306 306 305 306 307 308 309 310 311 312 313 313 312 311 309 307 305 304 306 308 310 313 316 317 318 318
276 276 277 276 276 276 276 277 277 277 278 278 278 278 278 278 278 278 278 278 279 279 279 279 280 280 280 280 281 281 281 281 282 282 283 283 284 284 286 287 288 290 291 292 293 293 293 293 293 293 293 292 292 292 293 294 296 298 301 302 304 304 305 305 306 307 308 309 310 311 312 311 312 312 310 307 304 304 304 306 307 309 312 315 316 317
276 276 277 276 276 276 276 276 277 277 278 278 278 278 278 278 278 278 278 278 278 279 279 279 279 280 280 280 280 280 281 281 281 282 282 282 283 284 285 286 287 288 289 291 293 293 293 293 293 293 293 293 292 292 292 293 295 296 299 300 302 303 303 304 305 306 307 308 309 310 310 310 310 310 310 307 305 304 303 304 305 307 309 312 314 314
Wind_Speed
21 22 22 23 23 24 23 23 23 23 24 24 25 25 25 24 24 24 24 24 25 25 25 24 24 23 23 22 21 20 20 20 21 22 23 23 23 22 21 21 21 20 20 21 21 22 21 20 19 19 21 22 24 25 27 28 28 28 27 25 22 19 16 15 16 19 24 28 33 38 43 44 44 44 44 45 47 48 48 46 44 44 47 51 52 54
21 22 22 22 23 23 22 22 22 22 23 24 24 25 25 25 25 25 24 23 23 23 22 22 23 23 23 23 21 20 20 20 20 21 22 23 24 23 23 22 22 22 22 22 23 22 22 20 19 19 20 22 23 25 26 27 29 29 29 27 25 22 19 16 16 19 25 28 32 36 41 44 45 45 44 45 46 48 48 47 44 44 48 52 52 53
21 21 22 22 22 22 21 22 22 22 22 23 24 24 25 25 25 24 23 23 22 22 22 22 23 23 23 23 22 20 20 20 21 22 23 23 24 24 24 23 23 23 23 23 23 23 22 21 20 20 20 21 23 24 26 27 29 30 31 29 27 24 21 18 16 18 25 31 33 35 40 43 45 45 45 45 46 48 49 48 46 45 48 52 52 53
21 21 22 22 21 21 21 21 21 22 22 23 23 24 24 24 23 23 22 22 22 22 23 23 23 23 23 23 22 21 21 21 22 22 23 23 23 23 23 23 23 23 23 24 24 23 23 22 22 21 21 21 22 23 25 27 29 31 32 30 27 25 22 19 16 18 26 33 34 35 38 42 44 45 45 46 47 48 49 50 48 47 49 52 52 52
21 21 21 21 21 21 21 21 21 22 22 23 23 22 22 22 22 22 22 21 21 22 23 23 23 22 22 22 22 22 22 22 23 23 23 23 22 22 22 22 22 23 23 23 24 24 23 23 24 23 21 21 21 22 24 26 29 32 32 31 28 25 23 20 17 18 26 32 33 34 36 40 43 44 45 46 47 48 50 50 50 49 49 52 53 53
21 21 21 21 21 21 21 21 20 21 22 22 22 22 21 21 21 21 21 20 21 21 22 22 22 21 20 21 22 23 23 24 23 23 22 21 21 21 21 21 21 22 22 23 23 24 24 24 24 23 22 21 21 22 24 26 29 32 32 30 28 26 24 21 17 18 25 30 31 32 35 39 41 43 44 46 47 49 50 51 51 50 49 51 51 52
22 21 21 21 21 21 20 20 19 20 21 21 22 22 22 21 21 20 20 21 21 22 21 21 20 20 19 20 21 23 24 25 24 22 21 21 20 20 20 20 21 21 22 23 23 24 25 24 24 23 22 22 22 22 24 26 30 32 32 30 28 26 25 22 18 18 25 29 30 31 34 38 41 42 43 45 47 49 50 51 51 51 50 50 49 50
21 21 21 21 20 20 20 19 18 19 20 20 21 22 23 22 21 20 20 21 21 21 20 19 18 18 19 20 22 24 25 24 23 22 21 21 21 21 21 21 21 21 22 23 24 24 25 24 24 23 22 23 23 23 24 26 30 32 31 29 28 27 25 22 18 19 25 29 30 31 35 38 40 41 42 43 46 48 49 51 52 53 53 52 50 48
20 20 20 20 20 19 18 18 18 19 19 20 20 21 21 21 21 21 21 21 20 19 18 17 18 19 19 21 23 24 24 22 21 20 21 22 23 24 23 23 23 23 23 23 24 24 24 24 24 23 22 23 24 24 24 26 29 31 30 29 29 28 25 22 18 20 25 29 30 31 35 38 40 40 41 42 43 45 48 49 51 54 55 55 52 50
19 19 19 19 19 18 17 18 19 19 19 19 19 19 18 19 20 21 21 21 20 19 17 17 18 19 20 22 24 24 23 21 20 20 21 23 24 25 24 24 23 23 24 24 25 25 25 24 23 22 22 24 24 23 23 25 29 31 30 30 30 28 25 21 18 20 26 30 31 32 35 37 39 40 40 40 41 43 45 47 49 52 55 56 55 53
18 18 18 18 18 17 17 17 18 19 19 19 19 18 16 16 17 18 19 20 21 20 19 18 18 18 20 22 24 25 23 22 22 24 25 26 25 25 24 23 23 23 24 25 26 26 25 24 22 22 23 25 24 23 22 24 28 31 32 32 31 28 25 21 18 21 27 31 31 32 34 37 38 39 39 39 39 40 42 43 45 48 53 56 57 56
16 17 17 17 17 17 17 17 18 18 18 18 17 16 16 17 17 17 18 18 20 20 20 20 19 19 19 21 23 24 22 21 22 26 29 29 28 26 25 24 23 23 23 25 26 27 26 23 21 21 24 25 24 22 21 24 29 32 33 32 30 28 25 21 18 21 27 31 32 33 34 36 38 39 39 38 38 39 40 40 42 44 49 53 55 56
16 16 16 16 16 16 16 16 17 17 16 15 14 14 16 17 18 18 17 18 19 20 20 20 21 20 20 21 21 20 20 20 23 26 29 29 29 28 27 25 24 23 23 24 26 28 27 23 20 21 24 25 23 21 20 24 29 32 33 31 29 26 23 20 18 21 27 30 32 33 34 36 37 38 39 38 38 38 38 38 39 41 45 49 52 54
15 16 15 15 15 15 15 16 15 15 15 14 14 15 17 18 19 18 17 18 19 19 19 20 20 20 20 19 17 16 17 20 23 26 28 28 28 28 27 26 25 24 23 24 26 28 28 24 21 22 24 24 22 20 21 24 29 32 32 29 26 23 20 18 17 21 26 30 32 33 34 36 37 38 38 38 38 38 38 37 38 39 42 46 49 52
14 14 14 13 14 14 15 15 15 15 15 15 16 17 18 18 18 17 17 17 19 19 19 19 20 19 18 15 14 14 16 19 22 24 26 28 28 27 25 25 25 24 23 24 26 28 28 24 22 23 25 23 21 20 20 24 28 31 30 27 24 21 18 16 16 20 25 29 31 33 34 35 36 37 38 38 38 38 37 37 37 38 40 44 48 50
14 14 13 12 13 14 15 15 15 15 16 16 17 17 17 17 17 17 17 17 18 18 17 17 16 16 16 15 13 13 16 19 20 21 23 26 27 26 24 24 24 24 24 24 26 27 26 23 22 23 24 22 20 19 20 23 26 29 28 26 22 19 17 16 16 20 25 29 31 33 34 35 36 37 38 38 38 37 37 37 37 38 40 43 47 50
14 14 13 13 14 15 16 16 15 15 16 16 16 16 16 16 17 17 16 16 16 16 15 13 9 7 10 15 15 14 17 19 20 21 22 24 26 26 24 22 22 23 24 24 25 26 25 22 20 22 23 21 19 18 20 22 24 26 26 24 21 18 16 15 16 20 25 29 31 32 33 34 35 36 37 37 37 37 36 37 37 38 40 43 47 50
13 13 13 13 14 15 16 16 15 16 16 16 16 16 16 16 17 16 16 15 15 14 14 13 10 6 5 9 14 17 20 20 20 20 20 22 25 26 25 22 21 22 23 25 26 26 25 21 18 20 21 19 17 17 19 21 23 25 24 22 20 17 15 14 16 22 26 29 31 32 33 33 34 35 36 37 36 36 36 36 36 38 40 44 47 49
13 14 14 14 15 16 16 16 15 15 14 15 16 17 18 17 16 15 14 14 14 14 14 13 12 11 10 13 17 21 22 22 20 19 18 20 23 26 25 22 21 21 23 25 26 26 25 22 17 16 18 18 17 17 18 20 23 24 23 21 19 17 13 12 17 24 27 29 31 31 32 32 33 34 35 36 36 36 35 35 35 36 38 41 45 49
14 15 15 15 16 16 16 16 16 15 15 16 17 18 18 17 16 15 14 14 14 15 15 14 14 14 15 17 21 23 24 23 20 18 17 18 21 23 23 21 20 20 22 25 26 25 25 24 19 14 16 17 17 16 17 20 23 23 22 21 19 16 12 12 18 25 29 30 30 31 31 32 32 33 34 35 36 35 35 34 33 33 35 38 42 47
16 17 17 17 16 16 16 17 17 17 17 18 19 19 18 17 15 14 13 14 15 16 16 15 15 16 17 19 22 24 26 24 20 17 15 15 17 19 20 19 19 20 22 25 26 25 24 24 20 12 12 15 16 17 18 21 22 22 21 21 19 15 10 11 18 26 30 30 30 30 31 31 32 32 32 33 34 34 34 33 32 33 34 36 40 44
17 18 19 18 18 18 18 19 20 20 21 21 20 18 17 15 14 14 16 16 16 16 16 16 16 18 20 21 23 26 27 25 21 16 12 11 14 17 18 19 20 20 21 23 24 24 24 23 18 10 6 10 13 16 19 21 21 21 20 20 18 13 10 12 19 27 30 30 30 30 31 31 31 31 31 31 31 32 32 32 32 34 36 37 40 43
19 19 20 20 19 19 19 20 22 23 22 21 20 19 17 15 15 16 17 17 17 17 17 18 19 20 21 21 23 25 25 23 19 15 10 7 10 16 20 21 20 19 20 22 25 26 26 23 18 9 1 7 10 14 17 19 20 20 19 19 16 12 10 13 20 27 31 30 30 30 30 30 30 30 30 30 30 30 30 31 32 33 36 38 41 45
19 20 20 19 19 19 20 21 22 22 21 20 19 18 17 17 17 18 18 18 18 18 17 17 18 19 19 19 20 20 19 16 13 11 10 8 11 16 20 20 19 18 21 24 27 27 26 22 15 7 1 5 8 11 15 17 17 17 17 17 14 11 10 14 21 28 31 31 30 30 30 30 30 29 29 28 28 29 29 30 30 32 34 37 40 45
18 19 19 18 18 19 20 21 21 20 19 18 17 17 17 18 18 18 17 16 14 14 14 15 15 15 16 16 16 16 15 14 14 14 12 10 12 16 19 18 17 17 21 26 28 27 24 20 12 5 3 3 6 10 13 13 13 14 14 13 12 11 12 15 21 28 31 31 30 29 30 29 29 28 27 27 27 28 28 29 30 31 34 36 38 42
18 18 18 18 18 19 19 19 19 18 18 17 17 18 18 17 15 13 11 10 10 11 11 11 11 11 14 14 14 14 14 14 14 13 12 10 12 15 17 17 16 18 21 26 27 25 21 17 10 4 3 3 6 10 11 10 10 10 11 11 11 13 15 18 22 28 31 30 29 29 29 29 29 28 27 27 27 27 27 28 29 30 33 36 38 40
17 17 18 18 18 17 17 17 17 17 16 16 16 16 17 15 13 10 9 9 9 10 10 8 7 8 11 11 12 14 15 14 13 12 13 12 11 12 14 16 18 19 22 25 25 22 18 14 8 2 3 3 7 10 10 8 7 9 10 10 12 15 18 20 24 28 31 30 29 29 29 29 28 27 27 27 27 27 26 27 27 29 31 36 39 39
17 17 17 16 16 16 16 16 16 15 15 14 15 15 15 13 11 9 8 9 10 10 10 7 6 5 6 8 11 15 16 13 11 11 14 13 10 10 14 17 19 20 20 22 23 20 13 8 4 2 4 4 7 9 9 6 6 7 9 9 11 14 17 21 24 27 28 27 27 28 28 28 28 27 27 27 27 27 27 26 27 27 29 33 36 38
18 17 17 16 16 16 16 16 16 15 14 14 14 14 14 12 11 10 10 11 11 10 10 9 8 7 7 10 13 15 14 10 7 10 16 13 11 11 14 16 18 19 18 18 17 14 7 5 5 5 6 5 5 6 7 4 4 5 8 9 9 11 14 19 24 27 28 25 25 26 27 28 28 27 26 26 27 27 27 27 27 28 30 31 33 35
19 18 18 17 17 16 17 17 16 15 14 13 13 13 12 11 11 11 12 13 12 11 10 10 9 9 9 10 10 9 8 6 8 13 17 13 10 11 14 15 16 17 16 13 8 4 5 6 8 7 7 6 4 4 5 3 3 4 7 9 9 9 10 16 22 26 27 24 23 23 25 26 27 27 26 26 26 27 28 28 29 30 31 32 32 33
19 18 18 17 18 18 18 17 16 15 15 14 13 12 12 11 12 13 13 13 13 12 11 10 10 10 9 6 4 3 3 8 14 17 17 13 11 12 15 15 15 16 15 11 5 2 4 5 8 8 7 6 4 3 4 4 4 5 7 8 9 9 9 14 19 23 25 25 23 22 23 25 26 26 26 26 26 26 27 28 30 31 32 32 31 31
18 17 17 17 17 18 18 17 17 17 16 15 15 14 13 13 13 13 13 14 13 13 12 12 11 10 9 7 5 4 5 13 18 19 17 13 12 14 15 14 14 15 15 12 7 4 3 3 7 10 7 3 1 1 5 6 5 5 6 8 8 8 9 13 16 20 23 25 23 22 22 24 25 26 26 26 26 27 27 28 30 31 31 31 29 29
17 16 16 16 17 17 17 17 17 17 16 16 16 16 15 14 14 14 14 14 14 14 14 13 12 11 10 10 9 10 13 18 20 19 16 14 12 13 14 14 14 14 15 13 10 7 4 3 7 10 10 5 3 1 4 7 6 5 6 9 9 8 9 12 16 20 22 22 22 21 22 23 24 25 26 27 27 27 27 28 29 30 30 30 28 27
17 16 16 16 16 17 17 17 17 17 17 16 16 16 16 16 16 16 16 16 16 16 15 15 14 12 11 10 10 12 16 18 19 17 15 14 12 12 14 14 14 13 13 12 11 8 6 7 8 9 9 9 5 0 4 8 7 4 6 10 11 11 10 12 16 20 22 23 23 23 23 22 23 24 26 27 28 27 27 28 29 30 30 30 28 27
16 16 16 16 16 17 17 17 18 18 18 17 18 18 18 18 18 18 18 17 17 17 17 17 17 16 14 12 11 12 15 18 18 17 16 15 14 14 15 14 13 12 11 10 9 8 6 8 10 9 7 7 6 2 4 8 8 5 6 10 13 13 12 11 14 17 21 24 24 24 23 22 22 24 26 27 28 27 27 28 29 29 30 29 29 28
16 16 16 16 16 17 17 18 18 19 19 19 20 20 20 20 20 19 19 18 18 18 18 18 19 18 18 16 15 15 17 19 20 19 18 18 17 16 14 13 13 13 11 10 9 8 8 9 11 11 8 4 4 4 2 7 8 6 5 9 13 15 15 13 13 16 20 23 24 24 23 23 23 23 24 26 27 27 27 27 28 29 29 29 29 28
15 15 15 16 16 16 17 17 18 19 19 20 21 21 21 21 20 19 19 19 18 18 18 18 18 19 19 19 19 20 21 22 21 21 20 20 20 19 17 16 16 15 12 10 10 10 10 9 9 9 7 3 3 5 6 2 7 8 6 7 11 15 16 15 14 16 19 21 22 22 22 22 23 23 23 24 25 26 26 27 27 27 28 28 28 28
15 15 15 15 15 15 16 16 17 17 18 19 20 20 20 20 19 19 18 18 18 18 18 18 18 19 19 19 19 20 21 22 21 21 20 20 21 20 19 19 18 18 15 13 11 11 10 6 5 5 4 4 5 9 13 7 5 11 8 7 9 13 15 16 16 17 19 19 20 20 22 23 23 24 24 24 25 26 27 27 27 27 27 27 27 27
15 15 15 15 15 15 15 15 16 16 18 18 19 19 19 18 18 17 17 17 17 17 17 17 17 18 18 18 18 18 19 19 19 19 19 19 19 19 20 20 19 19 17 15 13 11 9 6 4 3 2 4 7 11 14 10 6 10 11 9 10 13 14 15 16 17 18 18 20 22 23 24 25 25 25 26 27 28 29 29 29 28 27 27 26 26
16 15 15 16 16 16 15 16 16 17 18 18 18 18 17 17 17 17 17 17 16 16 16 16 17 17 17 17 16 16 16 16 16 16 16 16 17 17 18 19 19 19 18 16 15 13 11 9 9 8 7 6 7 9 11 12 8 6 10 9 8 11 14 15 16 17 18 18 20 23 25 26 27 26 26 26 27 28 30 30 30 29 28 28 27 27
17 16 16 17 17 17 17 17 17 18 18 17 17 17 17 17 17 17 17 17 17 17 17 17 17 17 16 15 15 15 15 15 14 14 14 14 15 16 17 18 18 18 18 17 16 15 13 12 11 11 11 11 12 12 12 14 11 3 6 7 8 12 15 16 17 18 19 20 21 23 26 27 28 27 26 26 26 27 29 30 30 30 29 29 29 29
17 17 17 18 18 18 18 18 18 17 17 17 16 16 17 17 17 17 17 17 17 17 17 17 17 17 17 16 15 15 14 13 13 13 13 14 14 15 15 15 15 15 15 15 15 15 14 13 13 13 12 12 11 10 10 13 11 4 5 9 12 15 16 16 17 20 22 22 23 24 26 27 27 26 26 25 25 26 28 29 30 30 30 29 30 30
18 18 18 18 18 18 18 18 18 17 17 17 16 16 17 18 18 17 16 16 17 17 18 18 17 16 15 15 16 16 16 14 13 13 14 15 15 15 15 14 12 11 11 12 13 14 14 13 13 13 14 13 12 10 10 12 10 2 8 13 13 11 9 12 16 20 22 23 24 24 25 26 26 27 26 26 26 27 28 29 30 30 30 30 29 30
18 18 18 18 18 18 18 18 18 18 17 17 16 17 18 19 18 17 16 16 16 17 17 17 17 15 14 14 15 17 18 17 15 15 15 15 15 15 14 12 10 9 9 10 12 13 14 14 13 13 13 12 11 10 9 9 6 2 11 14 13 10 8 11 16 20 22 24 25 25 25 25 26 27 28 27 27 28 28 29 29 29 29 30 30 30
19 19 19 18 19 19 18 18 18 18 17 17 17 17 18 19 18 17 16 16 17 17 17 17 15 13 12 13 14 15 17 18 18 17 17 16 15 14 13 11 9 8 8 8 9 11 12 13 14 14 12 8 6 5 6 8 5 7 14 15 14 13 14 16 19 22 24 26 26 26 26 26 27 28 28 28 27 27 27 28 28 28 28 29 30 31
20 20 19 19 19 19 19 19 19 18 18 18 18 18 18 19 18 18 17 17 17 16 16 16 14 12 11 12 13 14 15 16 18 19 19 18 17 14 12 10 8 7 7 8 10 12 13 14 15 15 13 10 10 11 13 13 11 10 14 16 16 16 16 17 19 21 24 26 27 27 27 26 26 26 27 27 26 26 27 27 27 27 27 27 29 30
21 21 20 20 20 19 19 19 19 19 18 18 18 18 19 19 19 18 18 18 17 16 16 16 15 13 12 12 13 13 13 14 16 18 20 21 20 17 15 11 8 6 4 6 9 13 16 18 19 18 16 12 11 13 16 16 13 10 11 15 17 16 15 15 17 20 23 26 27 27 26 25 25 25 24 25 25 25 25 25 25 26 26 27 28 29
21 21 21 21 20 20 20 20 19 19 18 19 19 19 19 19 19 18 18 18 17 16 16 16 15 14 13 13 14 14 13 13 14 15 18 20 21 21 19 15 11 8 5 4 6 9 14 18 22 23 21 17 13 12 14 16 15 12 11 14 17 17 16 15 17 20 23 25 25 25 24 24 24 24 23 23 22 22 22 22 23 24 26 27 27 28
21 21 21 21 21 20 20 20 19 19 18 19 19 19 19 19 19 18 18 18 17 16 16 15 15 14 13 14 14 15 15 14 14 15 16 19 21 22 22 20 17 13 9 7 5 6 9 14 20 24 25 23 19 16 15 16 15 13 13 16 18 18 17 17 18 21 22 23 24 24 23 24 25 25 25 22 20 19 20 20 21 22 25 26 27 28
21 21 21 21 21 20 20 20 20 19 19 18 19 19 19 20 20 19 18 18 17 16 16 15 15 14 13 14 15 15 15 15 15 15 17 18 20 21 22 22 20 18 16 12 9 7 6 8 14 20 25 26 24 21 18 17 15 14 15 17 18 18 17 17 18 20 22 23 24 25 25 25 24 25 25 22 20 19 19 19 19 20 22 25 27 27
21 21 21 21 21 20 20 20 20 19 19 19 19 19 19 19 20 20 19 18 17 17 16 16 15 14 13 14 15 15 15 15 15 16 17 19 20 20 21 21 20 18 15 12 9 7 5 4 7 13 20 25 26 24 22 19 16 14 14 15 16 17 17 17 18 20 22 24 25 26 26 25 24 24 23 22 20 18 17 17 17 17 19 23 26 26
Wind_Direction
310 311 312 314 313 313 312 314 316 319 320 321 321 321 320 319 317 316 315 315 315 315 316 315 313 312 311 309 307 306 303 302 301 301 301 300 297 295 293 292 290 287 285 281 280 280 279 279 278 274 269 267 267 269 270 270 269 270 273 277 280 279 272 259 240 224 217 217 220 222 223 224 226 226 226 225 225 224 223 220 217 215 216 219 218 213
313 313 313 314 314 313 311 313 315 318 320 320 320 320 319 318 317 316 316 315 315 315 314 313 312 311 311 311 309 307 305 304 303 302 301 300 298 295 292 290 287 286 285 282 280 277 276 277 279 276 269 265 264 266 269 269 268 268 270 274 278 280 276 267 249 228 215 214 217 221 223 225 226 226 226 226 225 224 222 219 215 213 216 220 219 213
315 315 314 314 313 312 311 311 314 317 319 319 319 319 318 318 317 316 316 316 316 315 314 313 312 312 311 312 311 309 307 307 306 304 302 300 298 295 293 290 287 285 283 281 278 275 274 277 280 279 270 263 262 264 267 267 267 266 267 271 276 279 278 272 256 231 215 212 215 220 224 225 226 226 226 225 225 224 222 218 214 212 215 219 218 212
315 315 314 313 312 310 309 310 313 317 319 319 318 318 318 318 316 315 315 315 315 315 315 315 314 313 312 312 311 310 310 309 308 306 303 300 298 295 292 290 287 285 282 279 276 274 274 279 282 280 270 260 258 260 264 265 265 265 266 269 273 277 278 274 259 232 214 211 215 221 225 226 226 226 225 225 224 224 222 218 213 211 213 218 217 211
313 313 312 311 310 309 308 309 313 317 319 319 319 319 319 317 316 315 314 315 315 315 315 316 316 315 313 311 311 311 311 311 309 307 304 301 298 295 293 290 287 285 282 279 276 274 276 280 283 279 267 256 253 256 260 263 264 265 265 268 271 275 277 274 260 231 213 211 216 222 227 227 227 226 225 224 223 223 222 219 214 210 211 215 215 210
311 310 309 308 307 306 307 309 314 318 320 320 320 319 318 317 316 315 316 317 317 316 315 316 316 316 312 310 310 311 312 312 311 309 306 303 300 297 294 290 287 284 282 279 276 275 276 279 281 277 265 253 250 253 258 262 264 264 265 267 270 274 277 275 261 232 213 212 216 223 227 227 226 225 223 222 221 221 220 219 215 210 208 212 212 208
308 308 307 305 304 304 305 309 314 319 321 321 321 320 319 318 317 317 317 319 319 317 316 315 316 316 313 311 310 312 314 315 315 313 309 306 303 299 295 290 287 284 282 279 276 274 274 277 279 275 263 252 248 251 257 261 263 263 264 266 270 274 277 276 261 233 214 212 216 223 226 226 224 223 222 221 220 219 219 218 215 211 207 208 208 206
307 307 307 306 305 305 306 310 315 319 322 322 321 321 320 319 318 319 320 320 321 319 318 316 316 316 314 313 314 315 317 318 317 315 313 309 306 302 297 292 287 284 281 278 275 273 272 275 277 274 262 252 247 249 255 260 262 262 263 265 269 274 278 277 262 234 216 213 216 221 223 223 222 221 220 219 218 218 218 218 216 213 208 206 206 204
305 306 306 306 305 306 308 311 315 319 321 322 321 320 319 319 320 322 323 323 323 323 321 319 319 317 316 315 316 317 318 317 315 313 312 310 309 306 301 296 290 285 281 277 274 271 270 273 274 270 259 250 247 248 253 258 261 261 262 265 269 275 280 279 262 234 217 212 214 218 221 220 219 219 218 217 217 217 217 217 217 214 210 208 206 205
305 305 305 305 305 306 308 311 314 317 320 321 320 319 318 319 322 324 325 324 325 325 324 322 320 319 317 317 317 318 318 316 314 312 311 310 310 308 304 299 293 287 282 278 275 272 272 273 271 265 254 248 246 247 251 256 259 259 261 264 269 275 282 281 263 234 217 212 212 216 218 218 218 217 217 216 216 216 216 217 216 215 213 210 208 208
306 306 305 305 306 306 307 309 312 316 320 321 321 320 320 322 324 325 324 323 323 324 323 322 320 319 317 316 317 318 318 316 315 314 313 312 311 309 305 300 294 289 283 278 275 273 274 274 269 259 249 245 243 245 249 254 256 257 259 263 269 277 285 283 263 233 216 211 211 214 216 217 217 216 216 215 215 215 215 215 215 214 212 210 209 210
306 306 306 305 306 307 308 310 312 316 320 323 324 324 323 323 324 323 321 320 320 321 321 320 319 317 315 313 315 316 317 317 317 318 318 316 314 312 309 304 298 291 284 278 274 275 278 276 266 251 243 241 240 242 247 252 254 255 258 263 271 280 287 284 261 232 216 211 211 213 215 216 216 216 216 215 214 213 213 213 212 212 210 209 209 210
304 305 305 304 305 307 309 312 315 318 322 324 325 324 322 321 321 321 318 316 316 317 317 318 317 316 314 313 313 314 316 318 320 321 320 318 317 317 316 312 306 298 291 283 279 279 282 280 264 245 238 237 238 240 244 249 252 254 258 265 275 285 291 284 258 230 216 211 211 212 213 214 215 216 215 214 212 211 210 209 209 208 207 206 207 208
305 305 305 303 304 306 309 312 315 317 319 321 321 319 317 317 318 319 318 316 315 315 316 315 315 315 314 314 314 316 318 323 324 323 321 318 318 319 320 316 311 303 296 290 284 282 284 282 265 243 234 235 236 238 241 247 250 254 259 268 278 288 291 281 255 228 215 211 211 211 212 213 214 215 214 212 210 209 207 206 205 204 204 203 204 206
306 306 304 303 303 305 308 311 312 313 315 317 317 316 315 315 317 319 319 317 316 317 317 317 317 316 314 314 316 320 324 328 328 325 322 318 316 318 320 318 312 304 298 293 287 284 285 281 262 242 234 234 234 235 239 246 250 255 260 269 278 285 286 276 251 227 215 212 210 210 211 212 212 213 212 210 208 207 205 203 201 200 200 201 201 203
304 303 301 300 301 303 305 307 309 310 311 313 314 315 315 315 316 317 317 316 316 317 319 321 322 320 317 316 318 324 330 332 329 324 320 315 314 316 319 319 313 307 300 294 289 287 287 279 258 239 233 233 232 232 237 245 251 255 261 268 275 280 280 271 248 226 215 212 210 210 210 210 210 210 209 207 206 204 203 201 200 199 199 199 200 201
301 299 298 298 299 300 302 304 305 306 308 310 311 311 311 311 312 312 312 313 315 317 319 322 323 321 318 317 319 324 331 331 327 321 316 311 310 314 319 317 310 305 304 298 292 289 290 280 256 236 230 230 229 230 236 243 249 255 261 267 272 275 275 265 244 226 216 212 211 210 209 208 207 207 206 204 202 201 200 200 199 199 199 201 203 205
299 298 298 298 298 298 300 302 303 304 306 308 309 310 308 307 306 306 308 311 313 315 316 317 316 314 314 313 313 316 323 326 322 317 312 307 307 312 318 318 311 304 303 300 295 293 295 287 261 235 228 227 226 226 233 240 247 253 259 266 269 271 271 259 237 223 216 212 210 209 208 206 205 203 202 200 199 198 197 197 198 199 201 205 207 210
300 299 298 296 296 296 297 297 299 301 304 306 307 307 306 304 302 302 304 308 310 311 311 310 309 306 304 302 304 308 314 317 316 311 306 302 303 309 317 318 313 306 304 301 298 298 301 298 277 244 228 224 222 223 230 238 245 252 260 267 267 266 270 253 229 219 215 212 209 208 206 204 202 200 198 197 196 195 194 195 196 199 203 207 211 213
300 297 294 292 293 293 293 293 295 298 301 302 302 302 300 299 299 300 302 307 308 307 305 303 302 301 301 300 301 304 308 311 310 305 299 296 298 304 313 317 313 307 304 301 300 301 305 305 294 262 228 222 219 220 226 235 244 252 260 262 262 263 267 247 223 214 212 210 207 205 203 200 198 196 195 194 193 192 192 194 196 199 204 209 212 213
294 291 288 286 286 287 289 292 293 295 296 295 295 293 293 293 295 299 304 307 306 303 301 298 297 299 301 300 300 301 304 306 304 299 296 294 296 302 310 316 315 309 303 302 302 303 305 305 302 282 231 221 219 218 223 233 244 254 258 254 252 255 261 241 217 209 207 206 204 201 198 196 195 193 191 191 190 190 191 193 196 201 205 209 211 211
288 285 284 281 280 282 286 289 290 291 291 288 285 283 283 287 294 301 304 304 302 298 296 295 296 298 298 297 296 298 302 302 296 289 290 293 297 302 310 316 316 309 302 301 302 303 303 304 305 300 240 216 215 219 225 236 248 255 252 244 243 247 244 231 212 204 202 201 199 195 193 191 190 189 188 187 187 188 190 192 197 203 207 209 210 209
285 283 282 281 280 281 283 285 287 287 286 281 276 274 277 285 294 299 299 296 293 292 293 295 296 297 296 294 294 297 302 303 299 293 293 294 301 306 311 316 314 307 300 300 301 303 304 305 308 312 244 201 211 222 230 242 251 251 242 237 238 244 239 224 209 200 196 195 192 189 187 185 185 184 184 183 184 185 187 190 195 201 205 207 208 208
290 288 287 287 287 287 287 286 286 286 285 283 280 281 286 292 294 292 289 288 289 291 295 298 299 298 297 296 296 297 301 308 318 326 326 312 302 304 308 313 311 306 301 301 303 304 306 308 316 332 111 191 213 228 235 242 242 236 230 231 236 240 237 221 205 197 193 191 187 184 181 180 179 178 178 179 180 182 184 187 191 196 201 203 205 205
299 299 299 298 297 296 295 294 293 294 296 298 300 303 304 300 296 292 290 291 294 298 301 302 301 300 300 301 300 298 300 309 321 331 334 316 302 302 305 311 311 307 304 305 307 307 308 311 322 356 93 172 211 223 226 226 220 215 217 225 232 232 226 213 201 194 192 190 185 180 177 174 173 173 173 174 176 178 180 183 188 193 197 199 200 200
308 307 306 305 303 303 302 303 305 307 309 309 310 309 307 303 301 302 304 307 309 310 308 305 301 300 301 302 301 299 302 307 315 323 327 317 305 302 304 312 315 313 309 309 310 310 308 310 321 3 97 162 202 206 203 200 193 190 196 210 218 217 211 203 195 191 191 188 184 179 173 170 169 168 169 171 173 175 177 180 185 190 194 196 196 195
315 314 311 310 310 310 311 312 313 313 311 309 307 307 307 311 317 322 318 318 318 317 311 304 298 298 301 301 301 301 303 304 309 319 328 320 306 299 306 315 321 319 314 311 311 310 305 304 313 15 110 163 197 197 188 177 161 159 171 184 193 197 198 195 190 188 188 186 183 178 172 167 165 165 167 169 170 173 175 178 182 186 190 192 193 193
322 321 320 319 318 319 319 320 319 317 314 310 309 310 315 325 330 326 317 318 319 314 303 296 293 297 301 303 303 302 301 296 301 322 335 326 308 299 309 319 324 324 319 315 313 312 309 305 321 68 121 158 191 193 181 163 142 138 147 156 170 181 188 189 187 184 182 181 179 176 171 166 164 165 167 168 170 171 174 177 180 184 187 189 190 192
326 326 325 324 324 325 325 327 326 323 319 316 315 318 324 331 330 321 314 314 311 304 295 293 295 299 304 306 306 303 296 286 302 335 342 330 313 305 314 321 326 328 325 322 319 317 320 342 29 75 134 161 186 184 165 154 149 136 121 124 139 160 176 184 184 182 178 175 174 172 168 164 164 166 168 170 171 172 174 177 181 185 187 188 189 191
328 327 327 326 327 328 329 331 330 328 325 322 322 324 327 328 323 315 309 306 302 296 293 294 296 300 305 308 308 302 293 291 316 333 338 332 319 313 319 322 326 329 332 332 330 321 321 353 24 61 126 155 175 168 143 148 167 149 115 104 109 127 154 175 181 181 179 175 171 167 164 162 164 167 171 172 173 173 174 177 181 185 187 188 189 190
325 325 325 326 327 329 331 332 332 331 331 330 329 329 328 324 318 311 306 301 296 293 293 294 296 299 303 307 307 299 296 300 308 317 329 326 317 313 318 319 321 326 332 336 337 320 317 336 358 26 94 139 168 172 151 154 161 149 121 103 99 109 133 159 170 176 180 180 175 168 163 161 163 168 173 175 176 176 176 178 180 182 183 184 185 186
323 323 323 324 326 329 330 331 332 332 333 332 332 331 328 322 315 308 303 298 295 292 291 292 293 294 295 292 289 287 288 294 299 308 319 317 311 310 313 314 315 319 326 331 328 311 309 317 331 345 27 92 154 195 160 162 166 154 129 114 107 110 122 139 150 161 173 177 176 171 165 163 165 169 174 178 179 179 179 179 180 179 178 177 177 179
323 323 324 326 327 329 330 331 332 331 330 329 328 328 326 322 316 309 304 300 296 292 289 288 288 288 288 285 281 280 282 286 293 302 310 311 308 307 309 310 311 315 320 327 324 312 297 297 311 323 341 341 333 349 135 149 161 160 139 128 121 118 121 129 137 145 154 159 163 164 166 166 168 172 177 180 182 182 181 182 181 180 177 174 172 172
325 327 328 329 331 332 332 333 332 331 329 328 326 325 323 321 318 313 309 306 301 295 289 284 282 281 283 282 280 278 279 282 290 298 303 304 303 302 305 306 308 312 318 325 327 322 305 305 308 312 319 323 318 321 108 132 139 143 136 133 131 128 123 124 130 133 135 138 144 151 159 162 167 173 179 182 183 182 182 183 184 183 179 175 171 169
329 331 333 334 335 335 335 334 333 332 330 329 327 326 324 322 320 317 314 310 305 299 293 287 281 277 275 274 276 276 278 282 291 297 298 297 296 297 300 300 303 308 315 321 327 328 318 311 310 308 304 311 310 318 102 132 138 137 125 130 132 132 127 118 117 119 121 125 131 139 147 152 160 168 176 180 181 181 182 183 185 185 183 179 175 171
333 335 337 338 338 338 337 336 335 333 332 330 329 328 326 324 321 319 316 312 307 302 297 292 287 282 277 271 268 269 274 283 292 296 295 292 290 291 292 293 296 301 307 313 319 322 320 316 311 306 298 294 307 324 56 127 138 139 119 125 131 134 130 120 109 105 107 112 119 128 137 144 151 159 167 174 178 180 180 182 184 185 185 183 180 176
336 337 339 339 339 339 337 336 335 333 331 329 328 327 325 323 320 318 316 314 311 309 305 300 296 291 286 280 274 272 276 284 291 295 294 292 289 285 282 284 289 294 296 300 307 313 319 319 316 311 303 301 321 328 326 79 126 129 115 119 129 134 132 126 113 102 100 105 114 124 133 139 144 149 156 165 171 176 178 181 183 185 185 185 183 179
338 338 339 340 340 339 337 336 333 330 327 324 323 322 321 320 319 318 317 317 317 316 313 309 305 302 298 292 286 283 284 287 291 295 296 294 290 283 279 280 285 290 290 290 293 302 310 314 317 316 313 321 321 318 318 334 98 117 113 118 128 133 133 128 117 106 101 104 115 126 134 137 139 142 148 156 163 168 173 177 180 182 183 183 182 180
339 339 339 340 340 339 336 334 331 328 325 323 321 321 321 321 321 321 321 322 322 322 320 317 313 311 309 307 303 299 296 295 297 300 300 298 294 289 283 281 284 289 292 292 291 291 293 291 296 308 319 322 320 321 326 341 48 101 114 122 129 132 134 130 121 113 109 110 115 124 131 133 136 140 146 152 157 162 165 169 174 176 177 177 176 176
341 341 340 341 340 339 337 334 332 330 328 327 326 327 327 327 326 327 329 330 330 330 329 327 324 322 321 320 319 316 313 311 310 310 309 308 306 302 296 291 290 293 296 294 292 288 283 277 275 278 282 290 302 311 319 328 355 78 126 128 127 129 132 133 128 124 123 120 117 118 121 126 131 137 143 149 154 158 161 165 168 172 173 171 169 166
343 342 341 341 341 341 339 338 336 335 333 332 333 334 335 334 333 333 334 336 337 338 338 337 335 333 334 334 333 332 329 328 326 324 323 324 323 321 315 308 304 302 300 296 292 289 282 275 272 272 273 277 283 291 300 313 325 346 151 145 128 123 128 132 133 130 127 124 119 116 115 117 122 128 135 141 148 154 159 163 165 168 170 170 167 163
345 343 342 342 341 341 341 341 341 341 340 340 339 339 339 339 337 336 337 338 340 341 342 341 339 336 336 338 341 344 345 344 342 341 340 342 342 342 338 333 325 318 309 301 296 293 289 283 276 272 271 274 280 293 308 317 325 330 162 142 125 115 117 125 130 128 123 120 117 114 112 111 113 117 123 128 136 144 153 158 162 164 165 165 165 163
345 343 343 343 343 343 343 345 346 346 346 345 344 343 343 343 342 341 340 341 341 342 343 343 341 337 335 336 340 346 352 357 357 356 355 355 356 357 357 355 351 341 328 314 304 301 304 300 291 283 281 280 277 279 293 307 319 338 150 140 128 114 105 113 120 121 117 116 115 115 113 113 113 115 118 122 127 134 142 149 155 158 159 159 159 159
345 345 345 345 345 346 348 348 349 349 349 348 346 346 346 347 346 345 344 344 344 345 345 345 344 342 340 340 341 343 348 356 2 4 4 4 3 3 4 6 5 1 353 336 319 313 318 319 315 311 306 294 280 275 287 306 316 145 145 142 135 123 115 116 117 116 114 114 115 117 117 117 118 118 118 119 123 128 135 141 146 151 154 155 155 155
347 348 349 349 350 350 350 350 350 350 351 351 350 349 348 349 349 349 348 347 347 347 347 347 347 346 346 345 344 344 345 351 358 4 8 10 11 10 9 10 12 14 14 4 350 341 337 333 333 338 343 336 324 328 346 357 28 112 137 140 135 126 121 121 121 120 117 116 116 118 121 123 122 118 113 111 114 120 128 135 140 144 148 151 152 153
351 351 352 352 352 352 351 351 351 352 353 354 354 352 351 351 351 352 352 351 349 348 349 351 351 350 348 346 345 345 344 346 349 355 2 7 12 14 14 12 14 20 27 30 30 25 16 5 359 359 3 11 21 27 28 30 46 89 122 130 128 122 120 120 123 124 123 120 119 121 124 126 122 113 105 102 104 111 120 129 135 139 144 147 149 151
352 352 353 353 353 352 351 352 352 354 355 356 355 354 353 353 354 354 353 353 352 352 352 354 355 353 351 349 348 346 344 343 344 347 353 360 6 10 12 10 8 9 20 32 36 36 33 30 27 25 23 22 22 23 26 32 41 67 104 121 123 119 113 114 120 125 127 125 123 125 129 128 120 110 102 99 99 102 110 120 130 138 144 147 149 151
351 352 353 354 353 353 352 352 353 354 355 356 356 356 355 355 355 355 354 354 354 355 356 356 355 354 353 352 351 349 346 343 342 343 347 353 359 5 8 9 4 354 344 353 18 32 37 38 38 36 35 31 25 19 18 22 29 47 84 110 116 114 109 112 119 124 126 125 126 129 130 127 120 113 106 99 94 94 99 109 121 134 144 149 152 153
351 352 353 354 354 353 352 352 352 353 354 356 356 356 356 357 357 357 355 355 355 357 358 357 355 354 354 353 352 351 350 347 346 346 349 351 355 360 4 7 6 2 355 344 343 4 27 39 42 42 41 37 33 26 19 20 28 48 80 101 110 111 111 115 120 123 124 123 125 128 129 128 127 123 116 103 92 88 91 100 112 127 140 150 155 156
352 352 353 354 354 354 353 352 353 353 354 355 356 356 356 357 358 358 358 357 358 359 359 358 357 356 354 353 352 352 351 350 349 349 350 352 354 356 358 2 2 1 359 357 350 343 351 23 40 44 44 42 38 33 26 22 30 50 75 92 103 110 113 115 119 122 123 123 124 126 127 127 129 129 122 109 98 90 89 94 102 116 132 146 154 157
351 352 353 354 354 354 354 353 353 353 354 355 356 356 357 357 358 359 359 359 359 359 360 0 0 359 357 354 353 352 353 352 352 350 350 352 354 355 356 358 358 356 351 350 349 347 344 354 24 37 40 41 41 38 33 27 30 43 63 80 96 108 113 116 118 120 121 122 124 126 126 125 126 126 123 115 105 95 89 89 94 105 122 139 147 152